"Pseudo-MPEC" for F4S4302

Created 2024 Oct 12 8:31:11 UT using Find_Orb

Click here for an explanation of pseudo-MPECs

 
 Astrometry: 
     F4S4302* B2024 09 23.97361 00 31 53.59 +09 03 50.3    ~9P1Mx17.9 GXNEOCPM45
     F4S4302  B2024 09 23.97425 00 31 53.55 +09 03 52.1    ~9P1M 17.8 GXNEOCPM45
     F4S4302  B2024 09 23.97505 00 31 53.60 +09 03 48.7    ~9P1Mx17.6 GXNEOCPM45
     F4S4302  B2024 09 23.97601 00 31 53.50 +09 03 50.4    ~9P1M 18.0 GXNEOCPM45
     F4S4302  B2024 09 23.97682 00 31 53.53 +09 03 50.7    ~9P1M 17.6 GXNEOCPM45
     F4S4302  B2024 09 23.97762 00 31 53.77 +09 03 49.7    ~9P1Mx17.6 GXNEOCPM45
     F4S4302  B2024 09 23.97906 00 31 53.59 +09 03 48.9    ~9P1M 17.7 GXNEOCPM45

Station data:
(M45) Starhopper Observatory, Sfantu Gheorghe  (N45.865494 E25.768890)
   Romania.  Observer F. Ursache. 0.41-m f/7.5 reflector + CMO.

Orbital elements:  F4S4302
   Perihelion 2024 Oct 5.44055 TT = 10:34:23 (JD 2460588.94055)
Epoch 2024 Sep 24.0 TT = JDT 2460577.5   Earth MOID: 0.0019   Ju: 0.5030
q   0.08352891                      Ve: 0.0118   Me: 0.0186   Ma: 0.0693
H   20.09 G 0.15   Peri.  278.62833                              AutoNEOCP
z -35.4565879510   Node   183.26178
e   3.9616504      Incl.   73.14193                       (J2000 ecliptic)
4 of 7 observations 2024 Sept. 23 (6.9 min); mean residual 0".39
Residuals in arcseconds: 
240923 M45( 1.2+  2.3-)   240923 M45  .46-  .67-    240923 M45  .41+  .19-    
240923 M45  .54+  .11-    240923 M45  .14-  .15+    
240923 M45( 1.2+  3.0-)   240923 M45( 3.3+  .33-)   

Ephemerides (geocentric):
Date (UTC) HH   RA             Dec           delta  r     elong  mag
---- --------  ------------   ------------  ------ ------ -----  ---
2024 10 12 09  13 02 37.094   +00 12 13.50  1.7393 .76371   8.0 21.4
2024 10 12 10  13 02 43.868   +00 14 05.71  1.7435 .76809   8.0 21.4
2024 10 12 11  13 02 50.610   +00 15 57.38  1.7476 .77247   8.1 21.4
2024 10 12 12  13 02 57.320   +00 17 48.51  1.7518 .77685   8.1 21.4
2024 10 12 13  13 03 03.999   +00 19 39.10  1.7560 .78122   8.2 21.4
2024 10 12 14  13 03 10.646   +00 21 29.16  1.7601 .78560   8.2 21.5
2024 10 12 15  13 03 17.261   +00 23 18.69  1.7643 .78998   8.3 21.5
2024 10 12 16  13 03 23.846   +00 25 07.69  1.7685 .79435   8.3 21.5
2024 10 12 17  13 03 30.400   +00 26 56.17  1.7727 .79873   8.4 21.5
2024 10 12 18  13 03 36.923   +00 28 44.13  1.7768 .80310   8.4 21.5
2024 10 12 19  13 03 43.416   +00 30 31.58  1.7810 .80748   8.5 21.5
2024 10 12 20  13 03 49.879   +00 32 18.53  1.7852 .81185   8.5 21.6
2024 10 12 21  13 03 56.312   +00 34 04.96  1.7893 .81623   8.6 21.6
2024 10 12 22  13 04 02.715   +00 35 50.89  1.7935 .82060   8.6 21.6
2024 10 12 23  13 04 09.089   +00 37 36.33  1.7977 .82498   8.6 21.6
2024 10 13 00  13 04 15.433   +00 39 21.27  1.8018 .82935   8.7 21.6
2024 10 13 01  13 04 21.748   +00 41 05.72  1.8060 .83372   8.7 21.6
2024 10 13 02  13 04 28.034   +00 42 49.68  1.8102 .83809   8.8 21.7
2024 10 13 03  13 04 34.292   +00 44 33.16  1.8143 .84247   8.8 21.7
2024 10 13 04  13 04 40.521   +00 46 16.16  1.8185 .84684   8.9 21.7
2024 10 13 05  13 04 46.722   +00 47 58.68  1.8227 .85121   8.9 21.7
2024 10 13 06  13 04 52.895   +00 49 40.73  1.8268 .85558   9.0 21.7
2024 10 13 07  13 04 59.039   +00 51 22.31  1.8310 .85995   9.0 21.7
2024 10 13 08  13 05 05.156   +00 53 03.42  1.8351 .86432   9.1 21.8
2024 10 13 09  13 05 11.246   +00 54 44.07  1.8393 .86869   9.1 21.8
2024 10 13 10  13 05 17.308   +00 56 24.26  1.8435 .87306   9.1 21.8
2024 10 13 11  13 05 23.343   +00 58 03.99  1.8476 .87743   9.2 21.8
2024 10 13 12  13 05 29.351   +00 59 43.27  1.8518 .88180   9.2 21.8
2024 10 13 13  13 05 35.332   +01 01 22.10  1.8560 .88617   9.3 21.8
2024 10 13 14  13 05 41.287   +01 03 00.49  1.8601 .89053   9.3 21.9
2024 10 13 15  13 05 47.215   +01 04 38.43  1.8643 .89490   9.4 21.9
2024 10 13 16  13 05 53.117   +01 06 15.93  1.8684 .89927   9.4 21.9
2024 10 13 17  13 05 58.993   +01 07 52.99  1.8726 .90364   9.5 21.9
2024 10 13 18  13 06 04.843   +01 09 29.62  1.8768 .90800   9.5 21.9
2024 10 13 19  13 06 10.667   +01 11 05.82  1.8809 .91237   9.6 21.9
2024 10 13 20  13 06 16.466   +01 12 41.59  1.8851 .91674   9.6 21.9
2024 10 13 21  13 06 22.239   +01 14 16.94  1.8892 .92110   9.6 22.0
2024 10 13 22  13 06 27.987   +01 15 51.86  1.8934 .92547   9.7 22.0
2024 10 13 23  13 06 33.710   +01 17 26.36  1.8976 .92983   9.7 22.0
2024 10 14 00  13 06 39.409   +01 19 00.45  1.9017 .93420   9.8 22.0
2024 10 14 01  13 06 45.082   +01 20 34.13  1.9059 .93856   9.8 22.0
2024 10 14 02  13 06 50.731   +01 22 07.39  1.9100 .94292   9.9 22.0
2024 10 14 03  13 06 56.355   +01 23 40.25  1.9142 .94729   9.9 22.0
2024 10 14 04  13 07 01.956   +01 25 12.70  1.9183 .95165   9.9 22.1
2024 10 14 05  13 07 07.532   +01 26 44.75  1.9225 .95602  10.0 22.1
2024 10 14 06  13 07 13.084   +01 28 16.40  1.9266 .96038  10.0 22.1
2024 10 14 07  13 07 18.613   +01 29 47.66  1.9308 .96474  10.1 22.1
2024 10 14 08  13 07 24.117   +01 31 18.52  1.9350 .96910  10.1 22.1